GW1675 Weather Reports


time (UTC)temp
C
wind
direction
speed
KPH
gust
KPH
rain 1hr
cm
rain 24hr
cm
rain mn
cm
humidity
%
barometer
mb
20260904234600 26 0 0.0 1.6 0.00 0.00 0.00 70 1018.5
20260904233058 26 188 0.0 4.8 0.00 0.00 0.00 70 1018.8
20260904231557 26 0 0.0 0.0 0.00 0.00 0.00 70 1018.9
20260904230114 27 0 0.0 1.6 0.00 0.00 0.00 71 1018.8
20260904224559 27 188 1.6 3.2 0.00 0.00 0.00 71 1019.0
20260904223100 27 0 0.0 4.8 0.00 0.00 0.00 71 1018.9
20260904221557 27 188 1.6 3.2 0.00 0.00 0.00 71 1019.2
20260904220100 28 188 3.2 4.8 0.00 0.00 0.00 71 1019.3
20260904214607 28 188 3.2 17.7 0.00 0.00 0.00 71 1019.4
20260904213059 30 191 6.4 9.7 0.00 0.00 0.00 72 1018.9
20260904211603 29 191 6.4 8.0 0.00 0.00 0.00 71 1018.9
20260904210055 29 191 3.2 12.9 0.00 0.00 0.00 72 1018.9
20260904204602 28 191 1.6 6.4 0.00 0.00 0.00 72 1019.3
20260904203100 29 0 0.0 6.4 0.00 0.00 0.00 72 1019.9
20260904201621 29 191 3.2 6.4 0.00 0.00 0.00 72 1019.9
20260904200100 29 0 0.0 3.2 0.00 0.00 0.00 72 1019.4
20260904194555 30 0 0.0 6.4 0.00 0.00 0.00 72 1019.3
20260904193100 29 191 1.6 3.2 0.00 0.00 0.00 72 1019.1
20260904191555 29 191 1.6 1.6 0.00 0.00 0.00 72 1019.1
20260904190056 28 191 0.0 3.2 0.00 0.00 0.00 72 1018.9
20260904184556 28 191 1.6 3.2 0.00 0.00 0.00 72 1018.8
20260904183113 29 0 0.0 3.2 0.00 0.00 0.00 72 1018.6
20260904181554 31 0 0.0 1.6 0.00 0.00 0.00 72 1018.9
20260904174557 31 191 3.2 11.3 0.00 0.00 0.00 73 1018.5
20260904173056 31 192 6.4 11.3 0.00 0.00 0.00 73 1018.0
20260904171611 31 192 3.2 6.4 0.00 0.00 0.00 73 1019.4
20260904170100 31 192 4.8 6.4 0.00 0.00 0.00 73 1019.7
20260904164610 31 192 1.6 3.2 0.00 0.00 0.00 73 1019.8
20260904163053 31 192 4.8 12.9 0.00 0.00 0.00 72 1019.7
20260904161552 30 192 3.2 4.8 0.00 0.00 0.00 72 1019.8
20260904154558 28 192 4.8 9.7 0.00 0.00 0.00 72 1020.7
20260904153109 27 192 6.4 20.9 0.00 0.00 0.00 71 1020.8
20260904151553 28 192 9.7 16.1 0.00 0.00 0.00 71 1021.0
20260904150100 28 193 6.4 12.9 0.00 0.00 0.00 72 1021.1
20260904144559 27 193 0.0 24.1 0.00 0.00 0.00 71 1020.9
20260904143055 30 158 12.9 22.5 0.00 0.00 0.00 72 1021.0
20260904141555 29 118 8.0 14.5 0.00 0.00 0.00 71 1019.7
20260904140104 28 118 8.0 17.7 0.00 0.00 0.00 71 1020.3
20260904134601 28 122 14.5 19.3 0.00 0.00 0.00 71 1020.4
20260904133059 28 122 0.0 6.4 0.00 0.00 0.00 71 1021.8
20260904131607 28 122 1.6 4.8 0.00 0.00 0.00 71 1022.2
20260904130050 27 122 0.0 6.4 0.00 0.00 0.00 71 1022.4
20260904124557 27 122 3.2 9.7 0.00 0.00 0.00 70 1022.8
20260904123058 27 122 0.0 4.8 0.00 0.00 0.00 70 1022.8
20260904121556 27 0 0.0 6.4 0.00 0.00 0.00 70 1022.6
20260904114605 26 128 1.6 8.0 0.00 0.00 0.00 70 1023.2
20260904113057 25 0 3.2 12.9 0.00 0.00 0.00 69 1023.1
20260904111606 25 127 6.4 14.5 0.00 0.00 0.00 69 1023.4
20260904104601 25 128 4.8 12.9 0.00 0.00 0.00 69 1023.1
20260904103058 25 128 4.8 14.5 0.00 0.00 0.00 69 1023.2
20260904101558 25 128 3.2 14.5 0.00 0.00 0.00 69 1023.2
20260904100105 24 128 3.2 12.9 0.00 0.00 0.00 69 1022.9
20260904094609 24 0 3.2 12.9 0.00 0.00 0.00 68 1023.2
20260904093108 24 129 6.4 14.5 0.00 0.00 0.00 68 1023.4
20260904091606 23 133 0.0 14.5 0.00 0.00 0.00 68 1023.3
20260904090101 23 134 4.8 8.0 0.00 0.00 0.00 68 1023.1
20260904084559 23 134 0.0 6.4 0.00 0.00 0.00 68 1023.1
20260904083052 23 0 1.6 4.8 0.00 0.00 0.00 68 1022.9
20260904081604 23 134 4.8 9.7 0.00 0.00 0.00 68 1022.1
20260904080056 23 134 1.6 8.0 0.00 0.00 0.00 68 1022.1
20260904074600 23 135 1.6 11.3 0.00 0.00 0.00 68 1022.6
20260904073115 23 135 1.6 3.2 0.00 0.00 0.00 67 1022.8
20260904071559 23 135 3.2 8.0 0.00 0.00 0.00 67 1022.8
20260904070106 23 138 3.2 14.5 0.00 0.00 0.00 67 1022.8
20260904064605 23 0 3.2 14.5 0.00 0.00 0.00 67 1022.7
20260904063107 24 138 6.4 12.9 0.00 0.00 0.00 68 1022.5
20260904061557 24 0 0.0 3.2 0.00 0.00 0.00 67 1021.8
20260904060103 24 0 1.6 4.8 0.00 0.00 0.00 67 1021.5
20260904054633 24 0 1.6 6.4 0.00 0.00 0.00 67 1021.4
20260904053104 23 137 3.2 9.7 0.00 0.00 0.00 67 1020.9
20260904051600 23 137 4.8 11.3 0.00 0.00 0.00 67 1020.9
20260904050054 23 149 4.8 12.9 0.00 0.00 0.00 67 1020.9
20260904044559 22 159 3.2 6.4 0.00 0.00 0.00 67 1021.0
20260904043102 22 160 6.4 11.3 0.00 0.00 0.00 66 1021.0
20260904041607 23 165 8.0 14.5 0.00 0.00 0.00 67 1021.4
20260904034556 23 0 0.0 0.0 0.00 0.00 0.00 67 1021.4
20260904033102 23 0 0.0 0.0 0.00 0.00 0.00 67 1021.3
20260904031605 23 0 0.0 1.6 0.00 0.00 0.00 67 1021.0
20260904030057 24 177 1.6 6.4 0.00 0.00 0.00 67 1021.2
20260904024600 24 177 0.0 0.0 0.00 0.00 0.00 67 1020.8
20260904023107 24 0 0.0 8.0 0.00 0.00 0.00 67 1021.0
20260904021600 25 183 1.6 4.8 0.00 0.00 0.00 67 1021.0
20260904020101 25 183 0.0 8.0 0.00 0.00 0.00 67 1021.3
20260904014616 25 183 4.8 11.3 0.00 0.00 0.00 67 1021.5
20260904013118 25 0 1.6 14.5 0.00 0.00 0.00 67 1021.5
20260904011558 25 183 6.4 14.5 0.00 0.00 0.00 67 1021.8
20260904010112 25 183 1.6 6.4 0.00 0.00 0.00 67 1021.9
20260904004616 25 183 1.6 6.4 0.00 0.00 0.00 67 1022.2
20260904003123 23 0 0.0 0.0 0.00 0.00 0.00 66 1021.7
20260904001555 24 0 0.0 0.0 0.00 0.00 0.00 66 1021.6
20260904000054 24 0 0.0 0.0 0.00 0.00 0.00 66 1021.5